Temp
43 44 47 47 48 48 48 46 45 43 43 42 42 41 40 39 39 38 37 37 36 35 35 35 35 36 34 34 35 35 35 35 33 35 36 38 37 38 40 41 41 41 41
40 41 43 45 45 45 43 42 41 41 40 40 39 39 38 37 37 36 35 35 34 34 34 34 33 36 33 33 34 33 33 35 33 31 34 35 36 37 36 36 38 41 36
39 39 39 40 42 41 40 40 40 39 38 37 38 36 35 35 35 34 34 34 33 33 33 32 31 31 30 31 32 31 32 35 35 32 32 35 36 36 36 35 35 33 39
38 38 37 37 38 38 38 38 38 38 37 35 34 33 34 33 33 33 33 33 32 32 32 31 31 30 30 30 31 31 33 33 33 33 32 33 34 36 35 32 31 34 33
37 36 35 35 36 36 36 35 35 35 34 33 33 32 33 33 33 33 33 32 32 31 31 31 31 31 35 36 34 32 33 32 32 31 31 32 32 32 31 32 31 32 33
37 35 34 35 34 34 34 33 33 33 32 32 32 32 32 33 40 38 34 31 31 30 30 29 30 30 33 37 37 38 36 33 31 31 31 30 31 31 32 31 30 29 27
35 34 34 34 34 33 33 33 32 32 32 31 31 32 31 33 39 38 35 31 30 29 29 30 31 32 31 32 35 37 36 38 38 34 30 30 30 32 31 30 29 28 27
34 33 33 33 32 32 32 32 31 31 30 30 30 30 30 33 38 36 34 31 30 30 31 31 31 30 31 33 34 34 34 34 33 33 32 32 33 34 33 30 29 27 29
33 33 32 32 31 31 30 30 29 28 27 26 28 28 28 28 37 37 33 30 31 30 32 32 32 31 34 37 34 33 33 33 37 38 38 38 38 39 37 31 27 25 24
33 33 32 31 31 31 30 27 26 27 27 28 27 26 25 24 36 37 34 29 24 28 29 31 33 30 37 37 33 31 28 31 31 32 32 33 35 33 36 32 29 25 24
32 31 30 29 30 29 27 25 26 26 26 25 24 23 23 24 26 36 36 29 27 24 24 26 28 35 37 38 38 24 27 34 34 31 30 29 27 30 30 31 30 28 22
31 30 29 28 28 28 26 25 25 26 25 23 23 23 22 21 25 34 35 35 33 21 23 26 26 33 36 37 33 36 36 34 30 29 19 24 23 24 26 28 25 27 25
30 28 26 26 26 27 26 24 24 24 24 23 22 21 20 22 20 32 34 34 34 26 26 28 34 35 35 33 34 35 27 21 27 25 26 26 23 25 26 19 19 19 21
30 27 26 26 24 24 25 25 24 23 22 21 21 20 17 17 18 20 21 20 25 26 28 25 28 33 34 31 23 26 23 20 22 26 26 26 19 16 21 20 20 18 15
29 26 25 26 25 23 23 23 23 22 23 21 18 18 17 13 17 24 23 15 12 21 15 10 14 16 15 15 14 15 18 18 20 24 24 23 20 17 20 20 18 17 16
27 26 25 24 23 22 21 18 24 26 27 28 27 20 16 25 30 31 31 32 30 29 5 3 6 9 10 11 10 12 14 14 16 19 21 20 19 19 19 20 21 16 15
29 26 24 22 21 20 19 19 17 18 27 29 30 30 29 26 30 29 30 28 25 17 -1 -3 1 3 5 8 7 7 10 11 11 13 16 16 17 17 16 18 19 19 16
27 25 24 23 22 20 18 18 17 15 13 9 24 23 27 28 27 28 27 16 -1 -0 -8 -6 -5 -4 -2 0 2 3 5 7 7 9 11 10 13 13 12 14 16 16 14
22 23 23 20 20 18 14 11 11 5 6 -0 -2 11 10 24 25 26 22 -5 -6 -9 -10 -10 -9 -8 -6 -6 -4 -4 -3 -0 2 3 3 3 5 8 10 13 14 14 13
13 14 14 15 12 11 10 9 6 4 3 2 -1 1 -7 -1 -2 -4 -11 -12 -13 -11 -12 -9 -9 -12 -11 -10 -9 -10 -9 -8 -7 -5 -4 -1 2 6 9 9 11 11 11
11 9 10 8 10 10 9 8 8 8 6 5 6 -2 10 -1 -0 -5 -8 -12 -7 -8 -8 -10 -10 -12 -12 -12 -14 -14 -14 -8 -10 -9 -7 -5 -1 2 6 9 9 9 9
10 9 8 10 9 7 8 8 7 8 5 6 -2 -8 19 1 -2 -5 -6 -6 -7 -8 -9 -9 -8 -8 -8 -9 -10 -11 -10 -9 -10 -13 -11 -9 -5 -2 4 6 7 7 7
10 8 6 5 7 7 6 4 5 5 3 1 -3 1 -3 -3 -6 -6 -6 -6 -9 -10 -8 -12 -11 -9 -9 -10 -10 -8 -6 -5 -5 -10 -9 -10 -9 -5 0 2 4 5 5
9 9 9 9 6 6 7 5 4 3 3 -1 1 1 1 -1 -4 -6 -7 -6 -5 -3 -4 -12 -13 -11 -9 -8 -9 -10 -8 -6 -10 -6 -4 -3 -6 -6 1 1 2 3 3
3 4 6 6 5 6 4 1 1 2 -3 3 2 -0 -1 -3 -2 -1 -2 -3 -3 -3 -4 -6 -7 -11 -8 -7 -7 -8 -7 0 -1 -2 -2 -2 -3 -4 -1 -0 1 1 1
-1 -0 0 -2 -1 -0 -1 -1 1 1 2 2 0 1 1 1 1 3 1 1 -0 -3 -4 -5 -6 -10 -9 -8 -8 -4 -3 4 1 -1 -2 -0 -1 -2 -1 -1 -1 -1 -1
MSLP
1018.51 1018.93 1018.89 1019.17 1019.50 1019.88 1020.58 1021.50 1022.29 1022.91 1023.17 1024.16 1024.95 1025.28 1025.73 1026.26 1026.88 1026.96 1027.47 1028.02 1028.14 1028.63 1028.82 1029.02 1029.26 1029.46 1029.44 1029.56 1029.60 1029.51 1029.51 1029.35 1029.04 1028.40 1028.16 1027.68 1027.35 1026.76 1026.32 1025.92 1025.45 1024.84 1024.06
1018.97 1019.14 1019.31 1019.72 1019.88 1020.35 1021.06 1021.91 1022.76 1023.18 1023.79 1024.28 1025.19 1025.77 1026.26 1026.71 1027.12 1027.46 1027.85 1028.39 1028.52 1028.87 1029.05 1029.22 1029.39 1029.42 1029.69 1029.88 1029.87 1029.73 1029.68 1029.58 1029.36 1028.71 1028.30 1027.64 1027.25 1026.80 1026.29 1025.72 1025.04 1024.69 1024.16
1019.62 1019.54 1020.01 1020.40 1020.71 1020.84 1021.65 1022.48 1023.05 1023.34 1023.90 1024.78 1025.39 1026.05 1026.72 1027.08 1027.42 1027.88 1028.17 1028.53 1028.84 1029.10 1029.35 1029.57 1029.77 1029.85 1030.10 1030.16 1030.09 1029.96 1029.78 1029.62 1029.39 1028.99 1028.26 1028.06 1027.31 1026.69 1025.88 1025.47 1024.96 1024.67 1023.93
1019.76 1019.79 1020.23 1020.82 1021.30 1021.72 1022.25 1022.95 1023.27 1023.77 1024.20 1025.14 1025.96 1026.57 1026.84 1027.32 1027.78 1028.11 1028.37 1028.77 1029.22 1029.53 1029.74 1029.93 1030.03 1030.03 1030.11 1030.02 1029.84 1029.80 1029.57 1029.57 1029.16 1028.80 1028.31 1027.84 1027.27 1026.62 1026.29 1025.36 1024.15 1024.17 1023.37
1019.76 1020.25 1020.85 1021.30 1021.82 1022.37 1022.84 1023.52 1023.85 1024.39 1024.92 1025.51 1026.13 1026.81 1027.20 1027.40 1027.88 1028.18 1028.55 1029.05 1029.40 1029.76 1030.01 1030.10 1030.12 1030.11 1029.79 1029.80 1029.78 1029.76 1029.57 1029.51 1029.12 1028.65 1028.23 1027.70 1027.16 1026.69 1026.28 1025.68 1025.04 1023.97 1023.08
1019.88 1020.48 1021.02 1021.53 1022.21 1022.60 1023.20 1024.02 1024.46 1025.13 1025.63 1025.92 1026.59 1026.75 1027.20 1027.55 1027.60 1028.13 1028.70 1029.22 1029.52 1029.69 1029.83 1029.98 1030.12 1030.15 1029.84 1029.74 1029.67 1029.52 1029.57 1029.41 1028.96 1028.67 1028.26 1027.64 1027.34 1027.27 1026.60 1026.09 1025.39 1024.55 1023.30
1020.04 1020.67 1021.04 1021.61 1022.53 1023.07 1023.64 1024.17 1025.03 1025.58 1025.83 1026.41 1026.58 1026.89 1027.32 1027.55 1027.83 1028.31 1028.75 1029.06 1029.31 1029.56 1029.72 1029.80 1029.75 1029.71 1029.88 1029.72 1029.45 1029.22 1029.33 1029.04 1028.62 1028.37 1028.16 1027.93 1027.37 1027.29 1026.82 1025.93 1025.74 1025.49 1024.58
1020.22 1020.76 1021.24 1021.94 1022.80 1023.54 1023.95 1024.63 1025.24 1025.66 1026.09 1026.49 1026.78 1027.18 1027.38 1027.64 1027.89 1028.43 1028.71 1028.88 1029.18 1029.29 1029.20 1029.37 1029.38 1029.66 1029.60 1029.34 1029.07 1028.92 1028.88 1028.74 1028.47 1028.18 1027.88 1027.50 1027.24 1026.86 1026.59 1026.35 1025.98 1025.29 1024.35
1020.19 1020.78 1021.47 1022.09 1022.95 1023.51 1024.09 1024.93 1025.46 1025.77 1026.45 1026.81 1027.01 1027.26 1027.49 1027.68 1027.85 1028.24 1028.36 1028.58 1028.76 1028.98 1028.98 1029.07 1029.19 1029.51 1029.25 1028.74 1028.61 1028.44 1028.26 1028.04 1027.78 1027.54 1027.22 1026.94 1026.57 1026.22 1026.08 1025.92 1025.72 1025.15 1024.08
1019.91 1020.64 1021.37 1022.09 1022.75 1023.54 1024.19 1024.97 1025.42 1025.98 1026.40 1026.79 1027.24 1027.42 1027.65 1027.86 1027.63 1027.70 1028.05 1028.44 1028.70 1028.90 1028.90 1028.81 1028.87 1029.13 1028.49 1028.09 1028.08 1027.81 1027.57 1027.21 1027.19 1027.10 1027.09 1026.69 1026.43 1026.08 1025.66 1025.48 1025.39 1024.93 1024.44
1019.44 1020.54 1021.46 1022.18 1022.70 1023.51 1024.36 1024.96 1025.52 1026.06 1026.58 1027.06 1027.39 1027.73 1027.83 1027.99 1028.07 1027.57 1027.57 1028.11 1028.50 1028.74 1028.96 1029.04 1028.92 1028.41 1027.98 1027.57 1027.37 1027.53 1027.12 1026.63 1026.59 1026.54 1026.49 1026.23 1025.98 1025.78 1025.35 1025.04 1024.89 1024.70 1024.34
1019.20 1020.23 1021.19 1022.07 1022.90 1023.77 1024.42 1025.12 1025.62 1026.15 1026.68 1027.26 1027.79 1027.96 1028.00 1028.23 1028.08 1027.43 1027.52 1027.82 1028.02 1028.53 1028.80 1028.58 1028.52 1027.89 1027.48 1027.00 1027.03 1026.80 1026.59 1026.50 1026.39 1026.30 1026.40 1026.27 1025.89 1025.45 1025.11 1024.73 1024.52 1024.33 1024.04
1019.08 1020.13 1021.19 1022.23 1023.11 1023.81 1024.44 1025.09 1025.66 1026.16 1026.55 1027.25 1027.60 1027.93 1028.11 1028.07 1028.17 1027.46 1027.49 1027.51 1027.64 1028.05 1028.05 1027.97 1027.32 1027.07 1026.85 1026.75 1026.65 1026.46 1026.86 1026.98 1026.66 1026.40 1026.11 1025.73 1025.59 1025.03 1024.69 1024.71 1024.30 1024.12 1023.84
1018.79 1020.08 1021.24 1022.10 1022.98 1023.72 1024.20 1024.74 1025.25 1025.74 1026.27 1026.81 1027.32 1027.61 1027.81 1027.90 1027.84 1028.01 1028.05 1028.14 1027.85 1027.59 1027.47 1027.54 1027.02 1026.40 1026.24 1026.46 1027.08 1026.85 1026.89 1026.81 1026.74 1026.31 1025.90 1025.41 1025.21 1024.91 1024.70 1024.32 1024.14 1023.67 1023.66
1018.75 1019.97 1021.03 1021.91 1022.52 1023.29 1024.02 1024.56 1024.98 1025.23 1025.45 1025.96 1026.43 1026.77 1027.28 1027.50 1027.35 1027.23 1027.21 1027.53 1027.33 1027.43 1027.61 1027.86 1027.10 1027.02 1027.14 1027.22 1027.35 1027.31 1027.09 1026.83 1026.69 1026.30 1025.85 1025.48 1025.18 1024.86 1024.46 1024.09 1023.75 1023.62 1023.58
1018.52 1019.62 1020.54 1021.48 1022.61 1023.31 1023.96 1024.76 1024.99 1025.05 1025.30 1025.43 1025.58 1026.00 1026.71 1026.59 1026.49 1026.34 1026.36 1026.27 1026.54 1026.71 1027.47 1028.43 1028.30 1028.18 1028.08 1027.97 1027.92 1027.80 1027.40 1027.13 1026.84 1026.55 1026.09 1025.60 1025.25 1024.94 1024.41 1023.93 1023.49 1023.36 1023.25
1018.15 1019.24 1020.26 1021.26 1022.25 1022.96 1023.65 1024.28 1024.96 1025.18 1024.94 1024.94 1024.94 1025.15 1025.61 1026.17 1025.96 1026.08 1026.02 1026.27 1026.57 1026.96 1028.20 1028.72 1028.88 1028.99 1028.96 1028.68 1028.26 1027.96 1027.68 1027.36 1027.00 1026.60 1026.18 1025.64 1025.16 1024.85 1024.52 1024.11 1023.44 1023.10 1022.86
1017.94 1018.78 1019.68 1020.59 1021.33 1022.15 1022.97 1023.67 1024.20 1024.80 1025.34 1025.38 1024.86 1025.24 1025.34 1025.51 1025.81 1025.83 1025.78 1026.69 1027.29 1027.74 1028.51 1029.22 1029.47 1029.32 1028.92 1028.82 1028.43 1028.17 1027.86 1027.56 1027.28 1026.89 1026.49 1026.05 1025.38 1024.99 1024.54 1024.28 1023.72 1023.32 1022.97
1018.24 1018.97 1019.47 1020.22 1020.98 1021.73 1022.65 1023.37 1024.04 1024.71 1025.23 1025.57 1026.08 1025.99 1026.21 1025.30 1025.31 1025.45 1026.03 1027.02 1028.22 1028.77 1028.94 1029.21 1029.01 1028.95 1028.76 1028.64 1028.57 1028.45 1028.14 1027.72 1027.45 1027.03 1026.43 1026.21 1025.43 1025.14 1024.71 1024.32 1023.90 1023.57 1023.27
1018.84 1019.28 1019.80 1020.35 1021.15 1021.95 1022.64 1023.33 1024.07 1024.60 1025.14 1025.48 1025.67 1025.98 1026.45 1026.48 1025.96 1026.33 1026.73 1027.40 1028.14 1028.53 1028.67 1028.88 1028.64 1028.45 1028.28 1028.23 1028.09 1028.16 1028.12 1027.76 1027.21 1027.08 1026.50 1026.18 1025.55 1025.21 1024.83 1024.45 1024.03 1023.74 1023.36
1018.92 1019.59 1020.04 1020.72 1021.11 1021.57 1022.23 1022.86 1023.44 1024.05 1024.40 1024.81 1025.08 1025.07 1025.77 1026.06 1026.27 1026.73 1027.10 1027.48 1027.87 1028.14 1028.24 1028.32 1028.16 1028.07 1028.11 1028.13 1027.98 1027.71 1027.66 1027.57 1027.20 1026.91 1026.54 1026.00 1025.56 1025.33 1024.91 1024.44 1024.05 1023.77 1023.46
1018.93 1019.54 1020.16 1020.56 1021.00 1021.52 1021.93 1022.42 1023.03 1023.44 1023.59 1023.97 1024.85 1024.83 1024.91 1025.44 1025.82 1026.23 1026.59 1026.92 1027.27 1027.48 1027.41 1027.56 1027.49 1027.32 1027.02 1026.93 1027.05 1027.20 1026.87 1026.92 1026.60 1026.56 1026.20 1025.81 1025.55 1025.25 1024.87 1024.47 1024.02 1023.63 1023.29
1018.94 1019.49 1020.07 1020.61 1020.87 1021.26 1021.69 1021.93 1022.32 1022.65 1023.18 1023.64 1024.37 1024.38 1024.97 1025.39 1025.51 1025.70 1026.00 1026.37 1026.81 1026.91 1026.55 1026.96 1026.74 1026.39 1026.15 1026.22 1026.36 1026.24 1026.07 1025.60 1025.67 1026.04 1025.77 1025.40 1025.24 1025.00 1024.79 1024.49 1024.08 1023.60 1023.27
1018.79 1019.20 1019.60 1019.97 1020.32 1020.65 1020.91 1021.28 1021.65 1022.02 1022.59 1023.14 1023.61 1023.83 1024.28 1024.68 1024.87 1025.10 1025.35 1025.68 1025.77 1025.63 1025.82 1026.04 1026.05 1025.80 1025.48 1025.10 1025.24 1025.11 1025.24 1024.75 1024.79 1024.88 1024.87 1024.75 1024.60 1024.48 1024.35 1024.06 1023.85 1023.42 1023.13
1018.76 1019.06 1019.31 1019.56 1019.95 1020.27 1020.66 1020.97 1021.37 1021.74 1022.12 1022.53 1022.79 1023.28 1023.53 1024.00 1024.27 1024.40 1024.58 1024.74 1024.79 1024.83 1024.62 1024.58 1024.66 1024.60 1024.68 1024.43 1024.04 1024.15 1024.15 1023.77 1023.72 1023.81 1023.93 1023.87 1023.81 1023.76 1023.74 1023.54 1023.33 1023.07 1022.81
1018.71 1018.93 1019.13 1019.32 1019.57 1019.83 1020.14 1020.52 1020.74 1021.02 1021.32 1021.62 1022.12 1022.67 1022.95 1023.13 1023.28 1023.41 1023.42 1023.47 1023.55 1023.89 1024.08 1023.95 1023.67 1023.79 1023.74 1023.63 1023.17 1023.11 1023.10 1022.79 1022.77 1022.78 1022.83 1022.80 1022.80 1022.83 1022.88 1022.78 1022.72 1022.65 1022.48
Wind_Speed
5 4 6 6 8 9 9 9 8 7 9 9 8 8 8 8 6 8 7 6 8 6 5 6 6 5 4 4 4 3 3 3 5 6 7 9 11 11 11 12 11 11 10
5 6 7 8 9 10 10 8 7 10 8 10 9 9 8 7 6 7 8 6 7 6 5 5 5 4 5 4 3 3 2 3 5 11 11 9 13 12 11 11 8 8 8
5 7 6 7 8 10 10 8 8 11 10 9 9 8 7 7 7 6 7 6 6 6 5 5 5 5 4 3 3 4 3 5 7 7 11 9 10 10 12 8 9 8 9
6 7 8 7 7 8 9 9 9 9 11 9 7 7 7 7 6 6 6 6 6 5 5 5 4 4 4 4 3 4 4 6 7 8 9 10 11 10 10 13 13 9 11
7 7 6 7 8 8 8 8 8 9 8 8 9 7 6 6 4 6 6 5 5 5 5 4 4 4 7 8 4 5 5 6 5 7 7 8 9 11 12 9 11 13 11
8 8 8 9 8 8 8 8 8 8 7 7 6 7 7 4 10 9 7 5 5 5 4 4 4 4 5 8 9 10 9 6 7 5 7 9 10 10 9 11 10 11 12
8 8 9 9 9 8 8 9 8 7 6 7 6 7 6 6 10 9 8 4 5 4 4 3 3 2 2 2 6 9 7 11 12 9 9 8 11 10 10 12 11 12 12
8 9 8 9 9 8 8 8 6 5 6 5 6 6 6 5 11 10 9 5 5 5 4 2 3 5 5 5 5 5 5 7 6 4 6 9 8 9 9 5 9 10 9
10 10 8 9 9 8 8 7 5 5 3 2 4 6 7 4 11 10 7 4 4 4 3 1 2 2 7 10 6 9 8 7 6 12 14 15 18 19 15 6 7 8 10
10 10 9 8 9 9 7 6 3 3 4 5 6 4 5 5 6 6 6 2 3 1 2 3 4 4 8 9 6 5 6 7 5 5 4 8 10 9 15 6 6 7 7
10 9 8 7 8 7 7 3 5 6 6 4 5 3 4 4 3 6 6 3 3 1 1 2 3 10 10 9 11 1 5 11 9 5 6 4 4 6 4 4 4 6 4
12 11 10 8 6 6 8 5 6 6 6 5 4 3 1 2 4 6 5 5 4 4 4 3 4 11 12 12 8 11 15 15 6 6 2 5 4 4 4 4 4 5 4
12 11 10 8 7 6 8 7 5 5 4 4 4 3 3 1 1 4 4 5 5 3 3 6 10 10 11 9 11 10 8 3 6 6 9 8 4 4 6 3 4 3 5
13 11 9 10 8 6 4 5 5 6 5 5 5 5 3 1 2 2 2 2 5 4 7 6 7 8 6 7 3 6 3 2 4 8 9 6 3 2 5 2 3 2 1
12 11 10 8 9 8 4 5 4 2 5 6 5 5 5 3 4 7 6 3 3 4 1 2 3 3 2 2 2 3 3 3 4 6 6 7 5 3 5 2 2 2 2
12 9 9 8 6 6 6 4 4 6 11 10 9 7 3 6 10 8 6 6 2 4 4 2 1 1 2 2 2 2 2 3 3 6 7 6 7 6 7 6 4 3 3
12 11 8 8 8 8 7 7 7 1 5 9 11 14 12 9 10 7 8 3 2 4 2 1 1 1 2 2 2 2 3 3 3 4 6 6 6 6 7 6 6 3 2
9 12 9 9 8 7 8 7 5 7 6 3 10 9 11 10 9 9 5 5 3 4 2 2 3 3 2 2 2 2 3 3 3 3 5 4 5 5 5 6 5 5 3
7 7 7 6 6 6 5 4 4 4 4 3 1 5 3 11 9 7 4 3 3 3 2 2 3 3 3 2 2 3 3 3 3 4 3 4 3 2 4 4 4 5 4
3 6 5 5 5 5 5 6 5 5 5 5 5 4 2 3 2 3 1 2 2 3 3 4 4 3 3 4 3 2 3 3 3 3 3 3 3 2 4 4 3 4 3
4 4 6 4 6 7 6 8 7 7 7 6 6 5 10 4 5 4 4 4 4 4 4 4 4 3 3 3 3 3 3 4 3 3 3 3 2 3 3 4 4 3 3
5 5 6 7 5 6 7 6 6 7 6 6 3 3 15 3 4 4 4 4 5 5 4 4 4 4 4 4 4 4 4 5 4 3 3 3 3 3 3 4 4 4 3
5 5 5 4 5 6 6 5 6 6 5 4 4 4 3 4 4 4 4 4 4 4 4 4 5 5 4 4 4 5 5 5 5 4 3 3 3 3 3 4 5 5 4
6 7 8 7 6 7 7 7 6 6 6 5 6 5 6 5 5 5 5 4 4 4 4 4 4 6 5 5 4 4 5 5 4 5 6 5 4 3 4 5 5 6 5
5 5 6 6 5 6 4 4 5 5 5 6 5 5 4 5 5 6 5 4 4 5 6 5 4 6 8 9 7 8 8 9 6 6 5 6 7 6 6 5 6 6 5
3 4 4 4 4 5 5 5 6 6 7 6 5 5 6 6 6 6 5 5 5 5 6 5 6 9 9 8 8 9 9 10 9 10 7 6 7 6 6 7 7 5 5
Wind_Direction
130 128 125 119 116 112 116 114 117 119 111 112 112 101 98 96 88 91 92 90 84 78 60 70 61 49 44 32 32 24 17 4 303 313 322 325 332 327 330 334 329 323 327
116 113 110 117 118 115 112 113 122 115 106 112 108 102 101 98 96 92 89 82 90 83 71 71 58 44 47 38 29 21 6 332 326 321 326 333 332 329 322 323 324 329 334
126 114 103 108 119 119 119 117 122 118 110 101 106 109 106 96 92 90 104 102 90 86 78 71 59 56 48 22 17 10 353 349 337 325 322 324 326 326 328 326 329 319 319
132 126 124 124 118 117 117 122 120 117 113 107 101 104 105 111 109 110 103 94 86 78 77 78 80 81 65 32 31 4 352 339 333 330 328 322 328 331 327 328 330 328 322
133 126 121 108 109 112 108 107 104 103 108 112 114 107 110 107 113 103 96 96 101 98 82 78 69 64 40 30 9 352 343 331 324 326 315 318 329 334 335 328 316 319 323
140 134 129 124 124 120 116 117 110 110 112 109 116 117 109 98 105 110 115 116 105 99 96 77 74 70 37 13 2 349 339 327 315 311 315 319 323 321 322 322 319 331 327
142 141 135 131 129 128 126 121 122 124 121 123 119 117 117 109 120 120 117 111 106 95 93 88 59 28 9 308 325 343 314 314 316 315 314 315 313 320 320 321 333 324 315
147 143 137 136 134 134 128 126 123 131 130 134 122 120 116 126 134 124 121 118 115 113 107 78 41 10 336 337 334 326 319 316 282 279 277 288 286 307 312 317 317 298 292
159 154 148 146 143 142 139 140 133 117 113 111 130 135 136 136 139 137 131 131 117 120 132 95 59 323 307 334 329 323 317 319 291 305 303 307 308 316 316 315 305 312 313
163 158 149 146 145 149 143 138 115 118 131 134 132 133 135 143 143 140 145 134 119 188 223 194 222 242 307 326 315 292 291 312 296 291 288 298 293 289 301 281 279 294 307
142 137 136 142 143 139 128 114 137 131 127 125 124 141 146 154 172 158 149 133 158 135 248 269 254 275 294 313 326 335 297 307 312 290 291 285 282 278 282 268 258 277 281
145 144 146 143 136 139 137 130 127 136 137 139 146 136 153 178 202 170 160 177 215 162 235 241 254 288 287 301 315 316 322 326 309 293 300 292 274 273 271 285 269 275 235
144 146 142 134 138 145 146 144 141 150 148 158 165 169 188 186 235 225 208 231 245 234 228 256 284 303 311 314 307 317 333 308 305 298 296 289 245 273 293 295 281 275 262
150 148 147 152 146 146 143 156 158 167 165 168 182 184 188 226 221 232 242 269 277 287 284 276 270 289 321 327 4 325 285 263 284 301 300 291 284 314 293 252 271 274 281
149 152 158 161 167 158 152 169 179 180 177 178 191 173 169 210 226 212 211 215 223 238 353 8 13 23 345 303 302 298 297 311 312 313 306 304 297 286 292 273 245 267 227
154 161 166 158 160 159 157 143 202 193 198 197 183 171 212 216 214 221 234 248 325 331 50 72 311 317 298 300 324 299 308 308 310 321 312 306 304 300 300 295 267 216 242
168 165 157 158 169 168 169 173 172 196 213 214 213 203 202 207 216 222 234 153 45 64 111 209 220 283 293 290 287 283 306 291 303 298 308 308 306 304 307 298 292 267 253
161 164 167 175 175 168 176 181 167 176 187 211 215 200 213 207 216 227 198 90 26 24 123 177 227 241 262 266 279 278 296 308 302 298 307 294 302 298 307 300 304 298 279
153 168 167 158 164 162 154 153 173 172 189 176 194 233 237 206 212 206 164 136 175 217 217 231 219 238 255 270 272 277 266 268 284 293 286 279 278 287 296 299 309 314 313
132 141 149 158 155 160 170 176 179 189 194 201 202 205 195 105 162 200 193 145 172 223 221 229 244 234 230 231 246 255 285 283 279 280 283 286 291 304 302 307 306 311 306
162 150 157 150 177 184 179 193 191 192 202 204 217 175 199 173 189 193 199 198 203 218 223 223 237 235 232 246 241 242 239 268 259 265 271 284 301 303 286 291 291 285 297
171 176 180 192 176 179 195 188 193 209 202 202 193 213 223 183 184 196 208 214 216 220 215 212 230 232 222 213 216 231 239 254 263 257 263 274 271 274 286 287 288 287 281
177 172 174 185 189 180 192 190 198 199 196 194 184 192 202 212 202 205 212 219 220 229 216 210 225 250 232 231 222 218 228 240 235 213 240 251 251 254 264 279 285 286 283
189 194 199 202 194 200 205 204 203 188 192 186 200 200 208 215 214 222 223 223 220 234 243 225 220 233 255 249 234 227 231 242 219 231 230 237 240 241 256 259 264 267 271
186 195 207 206 199 207 189 181 182 194 180 204 206 207 211 216 223 228 222 207 222 242 246 231 234 236 250 254 254 252 245 257 247 220 225 229 236 228 244 247 253 255 251
192 198 194 170 178 178 181 188 202 192 203 203 200 211 215 214 220 224 219 216 229 232 246 255 246 248 254 258 255 257 254 257 245 235 226 223 229 230 230 235 241 245 242